Terminal Aerodrome Forecast
Issued by NWS

Home | Current Version | Previous Version | Text Only | Print | Product List | Glossary On
Versions: 1 2 3 4 5 6 7 8 9 10 11 12 13 14 15 16 17 18 19 20 21
000
FTUS45 KSLC 220924 AAA
TAF36U
TAF AMD
K36U 220924Z 2209/2306 04007KT 4SM -SHSN BR OVC025
      TEMPO 2209/2212 1SM -SN BR OVC005
     FM221200 VRB04KT P6SM VCSH SCT020 BKN040
     FM222200 VRB04KT 2SM -SN BR SCT007 BKN015=

USA.gov is the U.S. government's official web portal to all federal, state and local government web resources and services.